Volver al catálogo

COSMOS 397

ActivoMilitarUNKNOWN
NORAD 4964·PAYLOAD·🇷🇺 Russia

Lanzado Feb 25, 1971 desde Baikonur Cosmodrome

Loading…

Próximos Pases

TLE

Source: Space-Track
1 04964U 71015A   26223.80240070  .00000014  00000-0  42970-4 0  9994
2 04964  65.7254 356.3379 1030139 213.9610 139.1167 12.74962988675348

Sigue COSMOS 397 en tiempo real con AllMySat

Download on the App Store